#timestamp,LO_Frequency,Hit 
1498543215.0,286047822.7,N
1498543215.9,286047822.7,N
1498543235.8,286047823.1,N
1498543255.6,286047820.5,N
1498543275.5,286047821.6,N
1498543295.3,286047822.0,N
1498543315.1,286047821.7,N
1498543335.9,286047820.5,N
1498543355.7,286047821.1,N
1498543375.5,286047818.9,N
1498543395.4,286047819.1,N
1498543415.2,286047819.8,N
1498543435.1,286047819.2,N
1498543436.0,286047819.2,N
1498543455.8,286047817.7,N
1498543475.6,286047819.9,N
1498543495.5,286047820.1,N
1498543515.3,286047818.2,N
1498543535.1,286047816.1,N
1498543555.9,286047815.8,N
1498543575.7,286047816.3,N
1498543595.6,286047816.7,N
1498543615.4,286047816.4,N
1498543635.2,286047816.0,N
1498543655.1,286047817.0,N
1498543656.0,286047817.0,N
1498543675.8,286047814.9,N
1498543695.6,286047814.9,N
1498543715.5,286047812.7,N
1498543735.3,286047811.4,N
1498543755.2,286047813.6,N
1498543775.9,286047813.1,N
1498543795.7,286047811.0,N
1498543815.6,286047810.1,N
1498543835.4,286047811.6,N
1498543855.2,286047813.4,N
1498543875.1,286047811.0,N
1498543876.0,286047811.0,N
1498543895.8,286047811.9,N
1498543915.7,286047809.8,N
1498543935.5,286047811.0,N
1498543955.3,286047812.3,N
1498543975.2,286047810.4,N
1498543995.0,286047807.9,N
1498543995.9,286047807.9,N
1498544015.7,286047807.8,N
1498544035.6,286047808.9,N
1498544055.4,286047808.8,N
1498544075.3,286047806.8,N
1498544095.1,286047806.9,N
1498544096.0,286047806.9,N
1498544115.8,286047807.3,N
1498544135.7,286047804.8,N
1498544155.5,286047804.8,N
1498544175.3,286047805.1,N
1498544195.2,286047804.7,N
1498544215.0,286047805.5,N
1498544215.9,286047805.5,N
1498544235.8,286047803.4,N
1498544255.6,286047803.3,N
1498544275.4,286047801.4,N
1498544295.3,286047804.0,N
1498544315.1,286047804.4,N
1498544335.8,286047801.4,N
1498544355.7,286047801.3,N
1498544375.5,286047801.7,N
1498544395.4,286047801.5,N
1498544415.2,286047804.1,N
1498544435.0,286047804.3,N
1498544435.9,286047804.3,N
1498544455.8,286047802.3,N
1498544475.6,286047802.2,N
1498544495.4,286047799.7,N
1498544515.3,286047802.0,N
1498544535.1,286047802.8,N
1498544555.9,286047802.4,N
1498544575.7,286047800.2,N
1498544595.5,286047800.5,N
1498544615.4,286047799.9,N
1498544635.2,286047801.2,N
1498544655.0,286047798.9,N
1498544655.9,286047798.9,N
1498544675.8,286047798.4,N
1498544695.6,286047798.9,N
1498544715.5,286047796.7,N
1498544735.3,286047798.1,N
1498544755.1,286047801.1,N
1498544775.9,286047798.9,N
1498544795.7,286047799.6,N
1498544815.6,286047796.5,N
1498544835.4,286047799.0,N
1498544855.2,286047797.0,N
1498544875.1,286047796.9,N
1498544876.0,286047796.9,N
1498544895.8,286047799.3,N
1498544915.6,286047799.2,N
1498544935.5,286047797.4,N
1498544955.3,286047795.3,N
1498544975.2,286047794.9,N
1498544995.9,286047796.7,N
1498545015.7,286047796.9,N
1498545035.6,286047796.9,N
1498545055.4,286047796.6,N
1498545075.2,286047797.1,N
1498545095.1,286047797.6,N
1498545096.0,286047797.6,N
1498545115.8,286047797.9,N
1498545135.7,286047797.6,N
1498545155.5,286047797.2,N
1498545175.3,286047795.0,N
1498545195.2,286047795.5,N
1498545215.0,286047795.2,N
1498545215.9,286047795.2,N
1498545235.8,286047793.3,N
1498545255.6,286047795.8,N
1498545275.4,286047796.2,N
1498545295.3,286047793.4,N
1498545315.1,286047796.2,N
1498545335.9,286047793.7,N
1498545355.7,286047796.3,N
1498545375.5,286047793.3,N
1498545395.4,286047795.6,N
1498545415.2,286047795.9,N
1498545435.0,286047794.1,N
1498545435.9,286047794.1,N
1498545455.8,286047792.2,N
1498545475.6,286047791.9,N
1498545495.5,286047791.7,N
1498545515.3,286047792.2,N
1498545535.1,286047792.6,N
1498545555.9,286047794.5,N
1498545575.7,286047792.2,N
1498545595.5,286047792.4,N
1498545615.4,286047792.0,N
1498545635.2,286047793.2,N
1498545655.1,286047793.1,N
1498545656.0,286047793.1,N
1498545675.8,286047792.6,N
1498545695.6,286047790.2,N
1498545715.5,286047790.3,N
1498545735.3,286047791.0,N
1498545755.2,286047791.0,N
1498545775.9,286047788.5,N
1498545795.7,286047788.9,N
1498545815.6,286047789.1,N
1498545835.4,286047789.4,N
1498545855.2,286047788.7,N
1498545875.1,286047791.6,N
1498545876.0,286047791.6,N
1498545895.8,286047789.1,N
1498545915.7,286047790.0,N
1498545935.5,286047789.5,N
1498545955.3,286047787.0,N
1498545975.2,286047787.4,N
1498545995.0,286047790.0,N
1498545995.9,286047790.0,N
1498546015.8,286047789.7,N
1498546035.6,286047788.4,N
1498546055.4,286047787.0,N
1498546075.3,286047787.8,N
1498546095.1,286047788.1,N
1498546115.8,286047789.5,N
1498546135.7,286047787.7,N
1498546155.5,286047789.6,N
1498546175.4,286047787.6,N
1498546195.2,286047787.5,N
1498546215.0,286047786.9,N
1498546215.9,286047786.9,N
1498546235.8,286047786.0,N
1498546255.6,286047788.2,N
1498546275.4,286047785.9,N
1498546295.3,286047785.7,N
1498546315.1,286047785.7,N
1498546335.9,286047785.8,N
1498546355.7,286047788.3,N
1498546375.5,286047788.2,N
1498546395.4,286047785.8,N
1498546415.2,286047786.2,N
1498546435.0,286047786.3,N
1498546436.0,286047786.3,N
1498546455.8,286047786.8,N
1498546475.6,286047786.1,N
1498546495.5,286047783.8,N
1498546515.3,286047783.9,N
1498546535.1,286047786.7,N
1498546555.9,286047782.5,N
1498546575.7,286047782.5,N
1498546595.5,286047785.0,N
1498546615.4,286047785.0,N
1498546635.2,286047783.3,N
1498546655.1,286047785.2,N
1498546656.0,286047785.2,N
1498546675.8,286047782.2,N
1498546695.6,286047782.3,N
1498546715.5,286047782.3,N
1498546735.3,286047785.1,N
1498546755.2,286047783.4,N
1498546775.9,286047783.1,N
1498546795.7,286047781.1,N
